User: anonymous   Login
Location: Unspecified
(0.0000°N, 0.0000°E)
Time: 11:45:21
(UTC+00:00)
Language:

AMOS 1 - Orbit

View from above orbital plane
View from above orbital plane
View from above satellite
View from above satellite

Ground track
Ground track

The orbit data is extracted from the following two-line orbital elements,

1 23865U 96030B   14330.64166606 -.00000141  00000-0  00000+0 0  1918
2 23865 005.3803 060.9206 0011124 104.5806 265.4753 00.97118046 67585
Epoch (UTC): 26 November 2014 15:23:59
Eccentricity: 0.0011124
inclination: 5.3803°
perigee height: 36646 km
apogee height: 36742 km
right ascension of ascending node: 60.9206°
argument of perigee: 104.5806°
revolutions per day: 0.97118046
mean anomaly at epoch: 265.4753°
orbit number at epoch: 6758

The dashed part of the orbit path shows where the satellite is in the earth's shadow,  

DLR